Voltar ao catálogo

TITAN 3C TRANSTAGE DEB

AtivoHEO
NORAD 26048·DEBRIS·🇺🇸 United States

Lançado Dec 21, 1965 de Cape Canaveral Space Force Station

Loading…

Próximas Passagens (próximas 24 horas)

TLE

AtualizadoSource: Space-Track

Época: Sep 14, 2026, 13:00 UTC

1 26048U 65108AG  26257.54191775  .00000815  00000-0  47742-3 0  9992
2 26048  26.5902  17.2810 6236944 280.5207  19.0925  3.64426895336424

Acompanhe TITAN 3C TRANSTAGE DEB em tempo real com AllMySat

Download on the App Store